Simultaneous Nadir Overpasses (SNOs) Predictions

Prediction of SNOs between AQUA and GOES-15 Satellite Orbit:

Table of predicted SNOs for the next 14.0 days since TLE Epoch: 8/5/2016
Index Date Time (AQUA) AQUA Lat,Lon GOES-15 Lat,Lon Distance(km) Time Diff (sec)
1 08/07/2016 10:31:36 -0.38,-134.15 -0.26,-134.62 54.45 80
2 08/09/2016 10:19:24 -0.98,-131.19 -0.26,-134.53 379.97 80
3 08/09/2016 22:40:48 -0.14,-136.38 0.28,-134.51 212.35 80
4 08/11/2016 22:28:36 0.48,-133.42 0.28,-134.41 112.39 80
5 08/12/2016 10:49:52 0.59,-138.58 -0.29,-134.37 478.42 80
6 08/13/2016 22:16:24 1.09,-130.46 0.28,-134.30 436.43 80
7 08/14/2016 10:37:40 -0.03,-135.62 -0.29,-134.26 154.60 80
8 08/16/2016 10:25:28 -0.64,-132.66 -0.30,-134.14 168.62 80
9 08/16/2016 22:46:51 -0.51,-137.84 0.31,-134.12 424.29 80
10 08/18/2016 10:13:15 -1.21,-129.69 -0.30,-134.01 491.25 80
11 08/18/2016 22:34:39 0.12,-134.88 0.31,-133.99 101.66 80




NCC Satellite Simultaneous Nadir Overpasses (SNOs) Prediction Service
